Vertical_Velocity
-1 -0 1 1 2 2 1 1 -1 -1 -1 0 1 2 2 2 2 2 1 1 1 2 1 0 -1 -1 -2 0 4 -2 -2 0 1 -1 1 1 2 2 1 -3 -1 -3 3 -1 1 2 1
1 0 -1 -2 -2 -1 -0 -1 1 0 -0 -1 -2 -1 -1 -3 -2 -2 -1 -1 1 -1 -1 -0 -1 -1 -1 1 1 1 3 2 2 2 2 1 2 3 1 1 -2 -5 -3 -2 -3 1 0
-0 -1 0 0 0 -0 -1 -1 -0 0 -0 -1 -1 -0 -1 -1 -3 -2 -2 -0 -1 -2 -0 -0 1 1 -2 9 2 1 2 1 -1 0 0 2 2 4 4 3 4 1 -4 -2 -5 0 -7
-1 -1 -1 -0 -0 -1 -1 -2 -1 -1 -2 -1 -1 -1 -2 -1 -1 -1 -2 -1 -1 -1 -1 -2 -3 -2 -1 5 6 4 2 3 4 1 1 3 2 0 -1 2 -3 2 -0 -4 0 2 0
-1 -1 -2 -2 -3 -3 -3 -3 -3 -2 -1 -1 -1 -1 -2 -3 -1 -0 -2 -3 -2 -2 -1 -1 -0 -0 3 0 3 3 3 3 0 4 3 3 3 3 3 2 3 -3 -7 -3 0 5 2
-3 -2 -2 -2 -2 -2 -2 -2 -1 0 -1 -0 -2 -1 -4 -3 -3 -2 1 0 -2 -3 -0 -1 0 -1 1 2 0 -0 1 1 0 0 -1 4 3 0 1 0 -23 -2 -2 -3 -7 -6 1
1 -0 -1 -1 -2 -2 -2 -1 -1 -2 -5 -4 0 -1 -2 -2 -4 -5 1 1 -2 -3 1 -0 4 -7 0 -2 -0 4 -1 1 2 2 4 6 -5 -16 9 8 11 9 3 -2 -8 5 1
-2 -2 -2 -1 -1 -1 -2 -1 -1 -2 -1 -1 1 -1 2 -4 -3 1 -6 -5 -2 -8 -38 15 3 -5 -6 -3 -5 3 6 5 1 -1 3 -0 -30 24 8 7 3 4 5 -15 -7 13 15
1 0 0 -1 -2 -2 -2 -4 -4 -4 -3 -2 -1 0 -0 3 -1 -4 -1 -3 -4 -5 -4 -9 1 4 3 5 -5 -0 4 2 0 -0 2 0 -0 -3 4 1 1 6 -5 1 1 4 5
-1 -0 -1 -1 -1 -1 -0 -1 -0 -1 -3 -3 -2 -1 -2 8 3 0 -3 1 -1 -3 -3 -7 -2 -4 4 2 1 4 2 2 -2 0 6 -3 3 -2 3 -15 17 6 13 4 -1 15 -2
-1 -3 -2 -2 -3 -2 -3 -1 -1 -0 0 -1 -2 -3 0 -6 8 1 2 0 -0 -3 -1 0 0 3 1 1 -1 -1 2 0 4 5 0 -3 -2 -0 1 -9 10 -22 3 2 4 1 8
-2 -2 -2 -1 -2 -2 -3 -2 -2 -0 1 1 2 -0 1 -2 -2 0 1 2 0 -0 -16 1 2 1 -0 3 -0 -2 -1 -1 1 -2 5 -7 6 -4 -4 1 1 6 -1 2 1 4 5
-3 -2 -2 -2 -2 -1 -2 -3 -2 -1 -2 -0 1 1 -1 1 2 1 2 -1 2 -3 3 6 2 -2 1 -0 0 3 2 -1 1 -2 -3 1 -6 -6 2 7 6 8 7 -4 -1 2 -9
-1 -2 -1 -1 -0 -1 -2 -1 -2 0 -2 -1 -1 -1 -2 -0 0 1 2 1 4 5 -2 0 1 6 -1 10 0 1 2 -2 -2 2 6 -2 -9 1 9 3 -1 1 -0 -4 -2 -1 -5
-1 -1 -1 -1 -1 -1 -2 -3 -2 0 -2 -2 -3 -1 -0 -2 1 1 1 1 1 7 6 -0 3 1 -2 1 -0 -3 1 1 5 4 -1 -1 0 -0 2 3 7 3 -7 10 11 8 8
-1 0 0 -0 0 -1 -1 -1 -1 -2 -3 -4 -2 2 1 0 -0 -1 2 -4 -6 -4 -2 2 2 -5 -3 -0 4 -1 -5 4 5 4 7 2 -5 -11 -5 -2 -2 4 7 -0 4 -2 -1
-2 -2 -2 -3 -2 -1 -1 -0 -1 -0 -1 -3 -4 -4 -3 0 2 4 -2 0 -2 2 5 4 -2 0 2 -2 -7 -5 -3 -2 6 5 3 6 8 -2 5 -2 -3 4 5 1 6 9 2
1 1 1 3 1 -0 -3 -3 -3 -0 0 0 1 -2 -1 -2 -2 -0 -1 5 3 -4 -2 2 -3 -2 -2 0 1 -1 -1 -2 -5 -4 -6 -6 3 -4 -8 -7 -0 6 4 17 18 -17 4
-2 -3 -2 -1 2 -1 -1 -2 -3 -2 -3 -3 -1 -2 1 3 -2 -1 3 -2 -0 -1 1 -1 1 2 1 3 -3 4 2 -6 0 -2 -1 -1 6 -5 -13 -1 9 7 5 1 2 15 -5
-2 -1 -2 -4 -1 -4 -0 -1 0 -1 2 0 -1 -4 -3 2 2 2 1 -4 -2 4 -4 4 -3 1 3 6 3 -0 -4 5 -2 -2 -1 0 -3 0 -3 -9 3 -11 -14 6 24 10 -12
-2 -3 -3 -2 -3 0 -0 -2 1 -0 3 -2 3 -2 -1 1 -2 -1 0 -1 -4 -5 1 -1 -7 2 11 3 -2 -7 1 2 -1 -2 2 12 -4 0 -3 -6 3 5 -0 -7 -5 -4 25
-2 -3 -3 -2 0 -0 1 -0 -1 4 5 4 2 -1 -2 1 -3 3 5 1 2 2 5 1 19 8 0 1 2 13 15 3 -4 -7 5 -1 -14 1 -11 -6 10 -6 -6 10 9 0 -2
1 2 1 -1 0 1 -1 0 1 4 5 3 -0 8 3 4 2 7 -1 -5 -3 -1 -8 2 -2 -2 -2 -2 2 -6 -5 -1 2 -5 9 6 1 5 -20 12 2 -11 1 -0 4 3 1
3 2 3 1 0 0 3 4 -0 1 0 -1 3 12 14 -4 -0 2 -4 0 -2 5 1 -7 2 4 2 -1 -4 -1 1 -6 2 4 8 -5 10 8 -14 9 -1 -1 3 2 0 1 2
2 0 2 2 -1 -1 2 3 4 4 4 -2 10 1 13 8 -7 4 -0 2 -3 1 -4 -3 -5 1 3 -0 -2 -7 -5 -7 -1 3 -0 3 7 2 -0 1 -0 4 -3 -3 -1 0 3
0 2 2 1 -2 -1 4 1 0 13 8 3 6 9 3 8 -17 9 8 11 -6 -3 -4 -0 -2 -2 -0 -3 4 0 -5 -2 -1 -2 2 5 0 5 3 3 -2 0 2 0 2 -2 1
1 1 -3 -1 3 5 3 3 1 7 10 12 -5 8 9 7 -7 9 -7 2 8 2 -8 -3 -5 -3 3 1 12 -2 -8 -1 -2 2 1 2 3 -2 -1 3 3 2 2 -2 -0 -10 -1
3 1 -2 -3 -5 2 4 6 4 7 2 35 -8 -2 20 -4 -7 4 16 2 1 0 -0 2 2 -8 -2 3 3 -3 -2 -2 4 9 -1 1 -1 -0 4 4 0 -1 2 1 0 4 -1
3 3 2 -1 -3 8 10 3 3 2 1 39 -27 3 52 23 -16 -2 5 9 2 10 4 -6 -4 7 4 12 2 2 0 2 -0 -0 -1 -2 -3 -1 -2 0 -1 -2 -1 -1 -2 -3 2
Height
3175 3174 3172 3170 3168 3167 3165 3164 3162 3160 3159 3157 3155 3153 3151 3149 3147 3146 3144 3142 3141 3139 3137 3136 3133 3132 3130 3129 3128 3125 3124 3123 3121 3120 3120 3119 3119 3118 3117 3116 3115 3113 3114 3113 3113 3112 3111
3173 3172 3171 3169 3167 3165 3164 3161 3159 3158 3156 3154 3152 3150 3148 3146 3144 3142 3140 3138 3136 3134 3133 3130 3128 3127 3124 3124 3122 3120 3120 3119 3117 3116 3115 3115 3114 3114 3113 3111 3110 3108 3108 3108 3107 3107 3105
3172 3171 3170 3168 3166 3165 3162 3160 3159 3157 3154 3152 3149 3147 3144 3142 3140 3138 3136 3133 3131 3129 3127 3125 3123 3120 3119 3120 3117 3116 3115 3114 3113 3112 3112 3111 3110 3109 3107 3108 3106 3104 3103 3101 3101 3101 3100
3171 3169 3168 3166 3164 3162 3160 3158 3156 3154 3152 3150 3148 3145 3142 3139 3137 3134 3131 3128 3126 3124 3122 3120 3118 3115 3113 3112 3111 3110 3109 3108 3107 3107 3106 3106 3105 3105 3103 3102 3101 3100 3098 3094 3094 3095 3094
3170 3168 3166 3164 3161 3159 3157 3155 3153 3151 3149 3146 3144 3141 3139 3136 3132 3130 3127 3123 3121 3119 3116 3114 3112 3110 3108 3106 3105 3104 3104 3104 3103 3103 3102 3102 3101 3099 3098 3097 3097 3094 3090 3088 3088 3089 3088
3169 3167 3164 3162 3159 3156 3154 3152 3149 3146 3143 3141 3139 3136 3133 3130 3126 3123 3121 3118 3116 3113 3111 3108 3105 3107 3103 3101 3100 3099 3099 3099 3098 3097 3098 3097 3096 3093 3090 3091 3087 3086 3085 3083 3082 3083 3080
3166 3163 3161 3158 3155 3152 3149 3146 3144 3141 3139 3136 3133 3131 3127 3123 3120 3117 3115 3113 3113 3110 3105 3103 3101 3098 3097 3095 3093 3094 3093 3093 3091 3091 3090 3090 3088 3081 3085 3086 3085 3084 3080 3077 3075 3077 3074
3162 3160 3157 3154 3150 3147 3144 3141 3138 3135 3132 3129 3126 3124 3121 3118 3114 3111 3109 3106 3104 3101 3095 3096 3092 3087 3088 3086 3084 3084 3086 3086 3084 3083 3083 3084 3078 3081 3082 3081 3080 3078 3075 3070 3070 3072 3067
3158 3155 3152 3149 3145 3141 3137 3134 3131 3128 3124 3121 3118 3116 3114 3111 3108 3106 3103 3101 3098 3093 3088 3087 3080 3077 3078 3078 3074 3075 3077 3075 3075 3075 3076 3075 3074 3075 3076 3076 3074 3071 3070 3067 3067 3066 3061
3153 3150 3147 3144 3140 3136 3131 3127 3123 3119 3115 3113 3110 3107 3104 3105 3103 3098 3096 3093 3092 3089 3082 3076 3071 3069 3070 3067 3068 3068 3068 3071 3070 3071 3070 3067 3069 3067 3067 3067 3069 3065 3067 3066 3064 3063 3055
3146 3143 3139 3135 3130 3126 3120 3115 3111 3108 3106 3104 3102 3099 3097 3094 3095 3093 3092 3088 3086 3088 3085 3071 3069 3068 3067 3068 3066 3066 3066 3066 3066 3065 3065 3066 3064 3064 3062 3063 3063 3059 3062 3060 3058 3055 3050
3139 3135 3131 3126 3121 3115 3110 3105 3102 3099 3097 3096 3095 3092 3091 3088 3087 3086 3085 3085 3086 3088 3077 3068 3065 3064 3065 3064 3063 3062 3063 3063 3061 3058 3058 3057 3059 3058 3057 3058 3058 3057 3057 3056 3052 3050 3041
3132 3128 3123 3118 3113 3108 3104 3099 3095 3092 3090 3087 3087 3085 3083 3082 3081 3079 3079 3081 3086 3080 3071 3066 3063 3063 3062 3062 3061 3060 3059 3059 3059 3055 3051 3050 3050 3051 3052 3051 3052 3051 3054 3053 3048 3046 3030
3123 3119 3114 3109 3106 3102 3097 3093 3090 3086 3083 3081 3080 3078 3075 3074 3074 3073 3073 3076 3075 3065 3065 3061 3061 3060 3060 3061 3059 3056 3054 3054 3055 3053 3048 3044 3041 3045 3044 3046 3047 3047 3049 3049 3042 3036 3025
3115 3111 3107 3103 3099 3095 3091 3087 3083 3079 3075 3073 3072 3072 3070 3067 3067 3066 3068 3067 3065 3063 3059 3056 3056 3055 3055 3056 3057 3055 3054 3052 3050 3048 3048 3044 3039 3037 3040 3041 3043 3041 3041 3042 3036 3032 3027
3107 3104 3101 3097 3092 3089 3085 3081 3076 3072 3068 3064 3063 3064 3063 3061 3060 3060 3060 3057 3057 3057 3056 3055 3052 3054 3052 3052 3052 3051 3049 3049 3048 3046 3045 3042 3035 3035 3037 3038 3039 3038 3038 3038 3035 3031 3020
3099 3096 3093 3089 3085 3081 3078 3074 3070 3066 3063 3059 3057 3057 3057 3055 3054 3053 3051 3048 3047 3052 3051 3052 3048 3049 3048 3047 3048 3047 3045 3045 3042 3041 3040 3038 3035 3031 3032 3032 3034 3034 3031 3031 3029 3024 3017
3092 3089 3086 3082 3078 3074 3070 3066 3063 3059 3057 3053 3051 3052 3050 3049 3052 3048 3046 3044 3044 3043 3045 3042 3040 3040 3040 3041 3038 3038 3037 3039 3037 3035 3033 3033 3028 3023 3024 3026 3025 3024 3024 3025 3024 3015 3010
3084 3079 3076 3073 3070 3066 3063 3059 3057 3054 3051 3049 3046 3045 3045 3043 3041 3040 3040 3038 3038 3037 3038 3036 3036 3036 3036 3035 3036 3032 3031 3032 3030 3031 3029 3028 3025 3021 3017 3019 3018 3017 3018 3018 3017 3012 3000
3075 3071 3068 3064 3061 3058 3055 3052 3049 3048 3045 3041 3040 3039 3038 3037 3035 3033 3031 3032 3033 3033 3031 3031 3029 3031 3031 3029 3030 3027 3026 3028 3026 3026 3025 3023 3021 3021 3017 3017 3018 3013 3011 3010 3011 3004 2996
3065 3062 3058 3055 3052 3049 3046 3044 3042 3040 3039 3035 3033 3031 3031 3030 3029 3030 3028 3027 3028 3028 3027 3027 3025 3025 3025 3022 3022 3021 3021 3020 3020 3021 3019 3018 3013 3013 3008 3009 3008 3004 3000 2999 2998 2991 2992
3054 3050 3046 3043 3040 3038 3037 3035 3033 3032 3030 3027 3025 3026 3025 3022 3024 3023 3023 3020 3021 3023 3023 3022 3020 3020 3019 3018 3019 3015 3015 3015 3014 3014 3012 3009 3005 3004 2997 2999 2998 2994 2991 2986 2984 2981 2977
3042 3038 3034 3032 3029 3027 3026 3025 3023 3023 3021 3018 3017 3019 3018 3015 3016 3017 3015 3015 3014 3016 3016 3017 3016 3014 3012 3012 3011 3009 3008 3007 3007 3006 3005 3002 2999 2997 2989 2991 2990 2987 2981 2978 2977 2974 2970
3028 3025 3021 3019 3017 3017 3016 3015 3015 3014 3012 3011 3012 3013 3012 3005 3007 3007 3008 3010 3010 3011 3009 3009 3010 3008 3008 3004 3002 3001 3000 2998 2997 2996 2995 2992 2993 2992 2986 2985 2986 2979 2975 2973 2972 2969 2966
3014 3011 3008 3006 3006 3007 3007 3007 3007 3005 3005 3002 3003 3004 3004 2996 2997 2999 3001 3002 3003 3003 3002 3000 3002 3002 3001 2999 2996 2992 2991 2989 2988 2986 2985 2985 2986 2985 2984 2982 2980 2975 2972 2971 2967 2964 2960
3002 2999 2996 2994 2994 2994 2995 2995 2996 2996 2996 2993 2992 2995 2994 2991 2987 2992 2992 2992 2994 2995 2995 2994 2994 2994 2994 2992 2991 2987 2987 2985 2983 2982 2981 2980 2980 2982 2980 2980 2975 2969 2969 2968 2964 2959 2958
2989 2988 2987 2987 2986 2985 2985 2984 2984 2985 2986 2985 2982 2985 2984 2981 2981 2985 2984 2985 2986 2987 2986 2986 2985 2984 2986 2986 2984 2983 2982 2982 2979 2976 2975 2975 2975 2975 2974 2973 2968 2965 2965 2963 2964 2965 2956
2977 2976 2976 2976 2976 2976 2976 2973 2972 2973 2975 2975 2974 2975 2976 2973 2974 2977 2977 2977 2979 2979 2979 2979 2980 2977 2978 2978 2977 2976 2975 2975 2973 2971 2971 2972 2972 2970 2968 2966 2964 2962 2962 2963 2961 2957 2952
2968 2965 2964 2965 2966 2966 2965 2965 2964 2964 2965 2964 2964 2967 2966 2965 2967 2969 2970 2970 2971 2973 2973 2971 2972 2971 2971 2966 2966 2967 2968 2968 2968 2967 2966 2967 2967 2966 2967 2963 2959 2956 2956 2954 2953 2952 2950